Burlington Piers, Ontario

12:22 PM EST on December 15, 2017 (GMT -0500)
Burlington Piers

Weather History for CWWB - November, 2012

Change the Weather History Date:

Saturday, November 17, 2012

  Actual Average Record
Temperature  
Mean Temperature 42 °F -  
Max Temperature 45 °F - - ()
Min Temperature 39 °F - - ()
Degree Days  
Heating Degree Days 23    
Moisture  
Dew Point 38 °F    
Average Humidity 84    
Maximum Humidity 90    
Minimum Humidity 75    
Precipitation  
Precipitation 0.00 in - - ()
Sea Level Pressure  
Sea Level Pressure 30.60 in    
Wind  
Wind Speed 3 mph ()    
Max Wind Speed 8 mph    
Max Gust Speed -    
T = Trace of Precipitation, MM = Missing Value Source: Averaged Metar Reports

Daily Weather History Graph

Daily Weather History Graph

Search for Another Location

Airport or City:

Trip Planner

Search our weather history database for the weather conditions in past years. The results will help you decide how hot, cold, wet, or windy it might be!

Date:

Astronomy

Nov. 17, 2012 Rise Set
Actual Time 7:15 AM EST 4:52 PM EST
Civil Twilight 6:44 AM EST 5:23 PM EST
Nautical Twilight 6:09 AM EST 5:58 PM EST
Astronomical Twilight 5:36 AM EST 6:32 PM EST
Moon 10:59 AM EST (11/17) 9:01 PM EST (11/17)
Length of Visible Light 10h 39m
Length of Day
9h 37m
Waxing Crescent, 20% of the Moon is Illuminated
Nov 17
Waxing Crescent
Nov 20
First Quarter
Nov 28
Full
Dec 6
Last Quarter
Dec 13
New

Hourly Weather History & Observations

Time (EST) Temp. Windchill Dew Point Humidity Pressure Visibility Wind Dir Wind Speed Gust Speed Precip Events Conditions
12:00 AM 42.6 °F 39.9 °F 37.2 °F 81% 30.51 in - West 4.6 mph - N/A   Unknown
1:00 AM 41 °F - 37 °F 79% 30.51 in - WSW 4.6 mph - -  
1:00 AM 41.0 °F 38.0 °F 36.7 °F 85% 30.51 in - WSW 4.6 mph - N/A   Unknown
2:00 AM 39.9 °F 37.8 °F 36.1 °F 86% 30.53 in - West 3.5 mph - N/A   Unknown
3:00 AM 39.9 °F 37.8 °F 36.3 °F 87% 30.54 in - SW 3.5 mph - N/A   Unknown
4:00 AM 40.1 °F - 35.4 °F 83% 30.56 in - SW 2.3 mph - N/A   Unknown
5:00 AM 39.7 °F - 35.8 °F 86% 30.58 in - WNW 1.2 mph - N/A   Unknown
6:00 AM 39.0 °F - 35.4 °F 87% 30.59 in - WSW 1.2 mph - N/A   Unknown
7:00 AM 39 °F - 36 °F 84% 30.61 in - West 3.5 mph - -  
7:00 AM 39.0 °F 36.8 °F 36.0 °F 89% 30.61 in - West 3.5 mph - N/A   Unknown
8:00 AM 39.6 °F - 34.5 °F 82% 30.63 in - WNW 2.3 mph - N/A   Unknown
9:00 AM 40.8 °F - 35.2 °F 80% 30.63 in - WNW 2.3 mph - N/A   Unknown
10:00 AM 42.6 °F - 35.1 °F 75% 30.64 in - NE 1.2 mph - N/A   Unknown
11:00 AM 43.0 °F 41.3 °F 36.1 °F 77% 30.65 in - East 3.5 mph - N/A   Unknown
12:00 PM 43.3 °F 41.7 °F 37.9 °F 81% 30.63 in - East 3.5 mph - N/A   Unknown
1:00 PM 44 °F - 39 °F 78% 30.63 in - ENE 5.8 mph - -  
1:00 PM 43.7 °F 40.3 °F 39.4 °F 85% 30.63 in - ENE 5.8 mph - N/A   Unknown
2:00 PM 44.1 °F 39.5 °F 39.7 °F 85% 30.61 in - East 8.1 mph - N/A   Unknown
3:00 PM 44.1 °F 39.5 °F 39.7 °F 85% 30.61 in - East 8.1 mph - N/A   Unknown
4:00 PM 44.8 °F 42.4 °F 39.9 °F 83% 30.61 in - East 4.6 mph - N/A   Unknown
5:00 PM 44.8 °F 41.0 °F 40.1 °F 84% 30.62 in - ESE 6.9 mph - N/A   Unknown
6:00 PM 45.1 °F 42.8 °F 39.7 °F 81% 30.62 in - East 4.6 mph - N/A   Unknown
7:00 PM 45 °F - 41 °F 79% 30.61 in - East 4.6 mph - -  
7:00 PM 45.1 °F 42.8 °F 40.6 °F 84% 30.61 in - East 4.6 mph - N/A   Unknown
8:00 PM 44.4 °F 42.9 °F 40.3 °F 85% 30.62 in - ESE 3.5 mph - N/A   Unknown
9:00 PM 42.8 °F - 39.9 °F 90% 30.62 in - NW 1.2 mph - N/A   Unknown
10:00 PM 42.3 °F - 39.2 °F 89% 30.63 in - NW 2.3 mph - N/A   Unknown
11:00 PM 41.7 °F 39.8 °F 38.8 °F 89% 30.63 in - NNW 3.5 mph - N/A   Unknown